Notices

What's New in latest Release from April 7th, 2021:

- Updated Glossary, including Speed of Maximum Gust, and Total Hourly Precipitation

- Updated national and regional climate services offices contacts and prices information

- Addition of station inventory lists for 1981-2010, 1971-2000, and 1961-1990 Normals.

If you haven't already, please take our survey and provide feedback about our website: https://eccc.sondage-survey.ca/f/LanguageSelection.aspx?s=442ca660-fcf1-47c0-95a9-59707d6fd709

Hourly Data Report for April 24, 2018

KENORA A
ONTARIO
Current Station Operator: NAVCAN

49°47'18.000" N
94°21'47.000" W
409.70 m
6034076
71850
YQK

Download Data

Hourly Data (April 2018)
Hourly Data Report for April 24, 2018
TIME
LST
Temp Definition
°C
Dew Point Definition
°C
Rel Hum Definition
%
Precip. Amount Definition
mm

Wind Dir Definition
10's deg

Wind Spd Definition
km/h
Visibility Definition
km
Stn Press Definition
kPa
Hmdx Definition


Wind Chill Definition


Weather Definition


00:00 3.7 -1.4 70   36 5 32.2 97.40     Mainly Clear
01:00
02:00 2.5 -1.8 73   35 8 32.2 97.49     LegendNANA
03:00 1.8 -1.9 76   34 13 32.2 97.53     Mostly Cloudy
04:00 0.4 -3.6 74   34 14 32.2 97.56     LegendNANA
05:00 -0.7 -4.2 77   33 14 32.2 97.60   -5 LegendNANA
06:00 -1.0 -5.4 72   33 10 24.1 97.69   -5 Mainly Clear
07:00 -0.9 -6.5 66   33 19 24.1 97.71   -6 LegendNANA
08:00 -1.2 -6.9 66   34 18 24.1 97.74   -6 LegendNANA
09:00 -1.4 -6.8 67   33 17 24.1 97.77   -7 Cloudy
10:00 -0.4 -7.6 58   35 21 24.1 97.82   -6 LegendNANA
11:00 0.8 -7.3 55   34 15 24.1 97.85     LegendNANA
12:00 2.3 -7.4 49   36 19 32.2 97.84     Mostly Cloudy
13:00 4.3 -7.0 44   33 18 32.2 97.82     LegendNANA
14:00 5.4 -6.9 41   33 18 24.1 97.80     LegendNANA
15:00 6.6 -7.1 37   33 13 24.1 97.78     Clear
16:00 6.9 -7.5 35   35 14 24.1 97.77     LegendNANA
17:00 7.0 -7.1 36   33 7 24.1 97.75     LegendNANA
18:00 7.0 -6.8 37   35 8 24.1 97.73     Clear
19:00 6.0 -7.0 39   32 8 24.1 97.70     LegendNANA
20:00 5.1 -7.2 41   34 4 24.1 97.70     LegendNANA
21:00 3.6 -6.8 46   12 5 24.1 97.69     Clear
22:00 3.0 -6.3 51   19 6 24.1 97.67     LegendNANA
23:00 1.7 -6.8 53   21 8 24.1 97.61     LegendNANA

Notes on Data Quality.

Legend

  • E = Estimated
  • M = Missing
  • NA = Not Available*
  • [empty] = Indicates an unobserved value
Date modified: